TimeEST,TemperatureF,Dew PointF,Humidity,Sea Level PressureIn,VisibilityMPH,Wind Direction,Wind SpeedMPH,Gust SpeedMPH,PrecipitationIn,Events,Conditions,WindDirDegrees,DateUTC
12:53 AM,43.0,36.0,76,30.24,10.0,Calm,Calm,-,N/A,,Clear,0,2013-02-10 05:53:00
1:53 AM,43.0,36.0,76,30.21,10.0,NE,3.5,-,N/A,,Clear,50,2013-02-10 06:53:00
2:53 AM,44.1,36.0,73,30.24,10.0,Calm,Calm,-,N/A,,Clear,0,2013-02-10 07:53:00
3:53 AM,43.0,37.0,80,30.23,10.0,Calm,Calm,-,N/A,,Clear,0,2013-02-10 08:53:00
4:53 AM,43.0,37.9,82,30.22,10.0,Calm,Calm,-,N/A,,Clear,0,2013-02-10 09:53:00
5:53 AM,44.1,36.0,73,30.24,10.0,Calm,Calm,-,N/A,,Mostly Cloudy,0,2013-02-10 10:53:00
6:53 AM,45.0,34.0,65,30.24,10.0,Calm,Calm,-,N/A,,Mostly Cloudy,0,2013-02-10 11:53:00
7:53 AM,46.9,30.0,52,30.23,10.0,South,4.6,-,N/A,,Mostly Cloudy,170,2013-02-10 12:53:00
8:53 AM,48.9,30.0,48,30.25,10.0,South,9.2,-,N/A,,Mostly Cloudy,180,2013-02-10 13:53:00
9:53 AM,52.0,30.0,43,30.24,10.0,South,12.7,19.6,N/A,,Mostly Cloudy,170,2013-02-10 14:53:00
10:53 AM,54.0,28.9,38,30.22,10.0,SSE,11.5,18.4,N/A,,Mostly Cloudy,150,2013-02-10 15:53:00
11:53 AM,55.0,27.0,34,30.19,10.0,SSE,12.7,20.7,N/A,,Overcast,150,2013-02-10 16:53:00
12:53 PM,55.9,28.0,34,30.13,10.0,SSE,15.0,23.0,N/A,,Overcast,160,2013-02-10 17:53:00
1:53 PM,54.0,37.9,55,30.12,9.0,South,15.0,20.7,0.00,Rain,Light Rain,170,2013-02-10 18:53:00
2:53 PM,50.0,45.0,83,30.08,5.0,SSW,5.8,-,0.08,Rain,Rain,210,2013-02-10 19:53:00
3:07 PM,48.2,46.4,93,30.06,2.0,Calm,Calm,-,0.03,Rain,Heavy Rain,0,2013-02-10 20:07:00
3:11 PM,48.2,46.4,93,30.07,4.0,South,3.5,-,0.04,Rain,Light Rain,180,2013-02-10 20:11:00
3:53 PM,48.0,46.9,96,30.07,3.0,WNW,3.5,-,0.13,Rain,Rain,290,2013-02-10 20:53:00
4:04 PM,48.2,48.2,100,30.07,2.0,West,3.5,-,0.04,Rain,Rain,260,2013-02-10 21:04:00
4:20 PM,48.2,48.2,100,30.09,1.5,SSW,6.9,-,0.12,Rain,Heavy Rain,210,2013-02-10 21:20:00
4:53 PM,50.0,48.0,93,30.08,1.5,South,6.9,-,0.33,Rain,Heavy Rain,180,2013-02-10 21:53:00
5:27 PM,50.0,48.2,94,30.08,3.0,SSW,15.0,23.0,0.16,Rain,Rain,210,2013-02-10 22:27:00
5:38 PM,50.0,48.2,94,30.09,3.0,SW,9.2,21.9,0.17,Rain,Light Rain,230,2013-02-10 22:38:00
5:44 PM,50.0,48.2,94,30.10,2.0,South,11.5,-,0.17,Rain,Rain,190,2013-02-10 22:44:00
5:53 PM,51.1,48.9,92,30.10,2.0,South,8.1,-,0.19,Rain,Light Rain,180,2013-02-10 22:53:00
6:00 PM,51.8,48.2,88,30.09,2.0,South,8.1,-,0.00,Rain,Light Rain,180,2013-02-10 23:00:00
6:21 PM,51.8,48.2,88,30.09,4.0,South,5.8,-,0.02,Rain,Light Rain,180,2013-02-10 23:21:00
6:53 PM,52.0,50.0,93,30.09,5.0,SSE,15.0,20.7,0.05,Rain,Light Rain,160,2013-02-10 23:53:00
7:53 PM,52.0,50.0,93,30.03,10.0,South,15.0,26.5,0.07,Rain,Light Rain,180,2013-02-11 00:53:00
8:53 PM,53.1,50.0,89,30.05,10.0,South,8.1,-,0.00,,Overcast,190,2013-02-11 01:53:00
9:53 PM,52.0,51.1,97,30.03,10.0,South,4.6,-,N/A,,Overcast,190,2013-02-11 02:53:00
10:53 PM,53.1,51.1,93,30.02,10.0,South,8.1,-,N/A,,Overcast,190,2013-02-11 03:53:00
11:53 PM,54.0,51.1,90,30.03,10.0,South,11.5,-,N/A,,Overcast,180,2013-02-11 04:53:00